User: anonymous   Login
Location: Unspecified
(0.0000°N, 0.0000°E)
Time: 03:09:05
(UTC+01:00)
Language:

ASC 2 Rocket - Orbit

View from above orbital plane
View from above orbital plane
View from above satellite
View from above satellite

Ground track
Ground track

The orbit data is extracted from the following two-line orbital elements,

1 21228U 91028B   14354.24211166  .00000833  00000-0  31603-3 0  4620
2 21228 023.9904 267.0721 1144701 011.7839 160.4005 12.52929490 83545
Epoch (UTC): 20 December 2014 05:48:38
Eccentricity: 0.1144701
inclination: 23.9904°
perigee height: 556 km
apogee height: 2348 km
right ascension of ascending node: 267.0721°
argument of perigee: 11.7839°
revolutions per day: 12.52929490
mean anomaly at epoch: 160.4005°
orbit number at epoch: 8354

The dashed part of the orbit path shows where the satellite is in the earth's shadow,  

DLR